• en Suisse
  • Liste des pays
  • À 7 jours
  • Température de l'eau
  • Carte satellitaire
  • Carte météo
  • Widgets météo
  • user-avatar
    Se connecter

    Météo par heure à Brisbane

    Ce jour, 18 Août, Samedi

    Heure Température Précipitation Vent Pression Humidité
    00:00 +17°C° 0 mm 2 m/s 759 mmHg 52%
    01:00 +16°C° 0 mm 2 m/s 759 mmHg 55%
    02:00 +15°C° 0 mm 2 m/s 760 mmHg 56%
    03:00 +15°C° 0 mm 2 m/s 760 mmHg 57%
    04:00 +14°C° 0 mm 2 m/s 760 mmHg 56%
    05:00 +14°C° 0 mm 2 m/s 760 mmHg 56%
    06:00 +14°C° 0 mm 2 m/s 760 mmHg 56%
    07:00 +14°C° 0 mm 2 m/s 760 mmHg 55%
    08:00 +17°C° 0 mm 2 m/s 760 mmHg 46%
    09:00 +21°C° 0 mm 3 m/s 760 mmHg 37%
    10:00 +25°C° 0 mm 2 m/s 761 mmHg 26%
    11:00 +26°C° 0 mm 2 m/s 760 mmHg 23%
    12:00 +28°C° 0 mm 3 m/s 760 mmHg 21%
    13:00 +29°C° 0 mm 4 m/s 759 mmHg 18%
    14:00 +29°C° 0 mm 4 m/s 758 mmHg 19%
    15:00 +28°C° 0 mm 4 m/s 758 mmHg 20%
    16:00 +27°C° 0 mm 4 m/s 758 mmHg 24%
    17:00 +25°C° 0 mm 4 m/s 758 mmHg 30%
    18:00 +22°C° 0 mm 3 m/s 758 mmHg 36%
    19:00 +20°C° 0 mm 3 m/s 758 mmHg 42%
    20:00 +19°C° 0 mm 3 m/s 759 mmHg 42%
    21:00 +18°C° 0 mm 3 m/s 759 mmHg 43%
    22:00 +17°C° 0 mm 3 m/s 759 mmHg 46%
    23:00 +16°C° 0 mm 3 m/s 759 mmHg 45%

    Demain, 19 Août, Dimanche

    Heure Température Précipitation Vent Pression Humidité
    00:00 +16°C° 0 mm 3 m/s 759 mmHg 43%
    01:00 +14°C° 0 mm 3 m/s 759 mmHg 42%
    02:00 +14°C° 0 mm 3 m/s 759 mmHg 42%
    03:00 +13°C° 0 mm 3 m/s 759 mmHg 42%
    04:00 +13°C° 0 mm 3 m/s 759 mmHg 42%
    05:00 +13°C° 0 mm 3 m/s 760 mmHg 42%
    06:00 +13°C° 0 mm 3 m/s 760 mmHg 42%
    07:00 +13°C° 0 mm 3 m/s 760 mmHg 43%
    08:00 +15°C° 0 mm 4 m/s 760 mmHg 37%
    09:00 +17°C° 0 mm 5 m/s 760 mmHg 31%
    10:00 +21°C° 0 mm 6 m/s 760 mmHg 25%
    11:00 +21°C° 0 mm 6 m/s 760 mmHg 23%
    12:00 +22°C° 0 mm 6 m/s 759 mmHg 20%
    13:00 +23°C° 0 mm 6 m/s 759 mmHg 17%
    14:00 +22°C° 0 mm 7 m/s 759 mmHg 17%
    15:00 +21°C° 0 mm 7 m/s 758 mmHg 17%
    16:00 +21°C° 0 mm 7 m/s 758 mmHg 16%
    17:00 +18°C° 0 mm 7 m/s 759 mmHg 19%
    18:00 +16°C° 0 mm 7 m/s 760 mmHg 21%
    19:00 +14°C° 0 mm 7 m/s 760 mmHg 24%
    20:00 +14°C° 0 mm 7 m/s 761 mmHg 27%
    21:00 +12°C° 0 mm 7 m/s 761 mmHg 29%
    22:00 +11°C° 0 mm 7 m/s 762 mmHg 32%
    23:00 +11°C° 0 mm 7 m/s 762 mmHg 33%

    Après-demain, 20 Août, Lundi

    Heure Température Précipitation Vent Pression Humidité
    00:00 +10°C° 0 mm 7 m/s 762 mmHg 34%
    01:00 +10°C° 0 mm 7 m/s 762 mmHg 35%
    02:00 +9°C° 0 mm 7 m/s 762 mmHg 37%
    03:00 +9°C° 0 mm 6 m/s 761 mmHg 39%
    04:00 +8°C° 0 mm 6 m/s 761 mmHg 40%
    05:00 +8°C° 0 mm 6 m/s 762 mmHg 41%
    06:00 +8°C° 0 mm 6 m/s 762 mmHg 42%
    07:00 +8°C° 0 mm 5 m/s 762 mmHg 43%
    08:00 +10°C° 0 mm 5 m/s 763 mmHg 35%
    09:00 +13°C° 0 mm 5 m/s 763 mmHg 28%
    10:00 +16°C° 0 mm 5 m/s 763 mmHg 20%
    11:00 +17°C° 0 mm 5 m/s 762 mmHg 17%
    12:00 +20°C° 0 mm 5 m/s 762 mmHg 13%
    13:00 +21°C° 0 mm 4 m/s 761 mmHg 10%
    14:00 +21°C° 0 mm 4 m/s 761 mmHg 11%
    15:00 +21°C° 0 mm 4 m/s 761 mmHg 12%
    16:00 +21°C° 0 mm 3 m/s 761 mmHg 13%
    17:00 +18°C° 0 mm 3 m/s 761 mmHg 19%
    18:00 +16°C° 0 mm 3 m/s 762 mmHg 25%
    19:00 +14°C° 0 mm 2 m/s 763 mmHg 30%
    20:00 +13°C° 0 mm 2 m/s 763 mmHg 32%
    21:00 +12°C° 0 mm 2 m/s 764 mmHg 34%
    22:00 +10°C° 0 mm 2 m/s 764 mmHg 36%
    23:00 +10°C° 0 mm 2 m/s 764 mmHg 35%

    21 Août, Mardi

    Heure Température Précipitation Vent Pression Humidité
    00:00 +9°C° 0 mm 2 m/s 764 mmHg 35%
    01:00 +9°C° 0 mm 3 m/s 763 mmHg 34%
    02:00 +8°C° 0 mm 3 m/s 763 mmHg 36%
    03:00 +8°C° 0 mm 3 m/s 763 mmHg 38%
    04:00 +7°C° 0 mm 3 m/s 763 mmHg 39%
    05:00 +7°C° 0 mm 3 m/s 763 mmHg 40%
    06:00 +7°C° 0 mm 3 m/s 763 mmHg 40%
    07:00 +7°C° 0 mm 3 m/s 763 mmHg 41%
    08:00 +11°C° 0 mm 3 m/s 763 mmHg 34%
    09:00 +14°C° 0 mm 3 m/s 763 mmHg 27%
    10:00 +18°C° 0 mm 3 m/s 762 mmHg 21%
    11:00 +20°C° 0 mm 3 m/s 761 mmHg 18%
    12:00 +22°C° 0 mm 3 m/s 760 mmHg 15%
    13:00 +24°C° 0 mm 3 m/s 759 mmHg 13%
    14:00 +24°C° 0 mm 3 m/s 759 mmHg 14%
    15:00 +23°C° 0 mm 4 m/s 758 mmHg 15%
    16:00 +23°C° 0 mm 5 m/s 758 mmHg 16%
    17:00 +20°C° 0 mm 4 m/s 758 mmHg 19%
    18:00 +18°C° 0 mm 4 m/s 759 mmHg 23%
    19:00 +15°C° 0 mm 4 m/s 759 mmHg 26%
    20:00 +14°C° 0 mm 4 m/s 760 mmHg 28%
    21:00 +13°C° 0 mm 4 m/s 760 mmHg 31%
    22:00 +12°C° 0 mm 4 m/s 761 mmHg 33%
    23:00 +11°C° 0 mm 4 m/s 761 mmHg 35%

    22 Août, Mercredi

    Heure Température Précipitation Vent Pression Humidité
    00:00 +10°C° 0 mm 3 m/s 761 mmHg 37%
    01:00 +9°C° 0 mm 3 m/s 761 mmHg 40%
    02:00 +9°C° 0 mm 3 m/s 761 mmHg 42%
    03:00 +9°C° 0 mm 3 m/s 760 mmHg 45%
    04:00 +8°C° 0 mm 3 m/s 760 mmHg 48%
    05:00 +8°C° 0 mm 3 m/s 761 mmHg 47%
    06:00 +8°C° 0 mm 3 m/s 761 mmHg 47%
    07:00 +8°C° 0 mm 3 m/s 762 mmHg 47%
    08:00 +12°C° 0 mm 4 m/s 762 mmHg 41%
    09:00 +15°C° 0 mm 4 m/s 762 mmHg 35%
    10:00 +19°C° 0 mm 4 m/s 761 mmHg 28%
    11:00 +20°C° 0 mm 4 m/s 761 mmHg 26%
    12:00 +21°C° 0 mm 4 m/s 760 mmHg 23%
    13:00 +23°C° 0 mm 4 m/s 759 mmHg 21%
    14:00 +22°C° 0 mm 4 m/s 759 mmHg 21%
    15:00 +22°C° 0 mm 4 m/s 759 mmHg 22%
    16:00 +22°C° 0 mm 5 m/s 759 mmHg 22%
    17:00 +20°C° 0 mm 4 m/s 760 mmHg 26%
    18:00 +18°C° 0 mm 4 m/s 760 mmHg 30%
    19:00 +16°C° 0 mm 3 m/s 761 mmHg 34%
    20:00 +14°C° 0 mm 3 m/s 762 mmHg 38%
    21:00 +13°C° 0 mm 3 m/s 762 mmHg 43%
    22:00 +12°C° 0 mm 3 m/s 763 mmHg 48%
    23:00 +13°C° 0 mm 2 m/s 763 mmHg 52%

    23 Août, Jeudi

    Heure Température Précipitation Vent Pression Humidité
    00:00 +12°C° 0 mm 2 m/s 763 mmHg 56%
    01:00 +10°C° 0 mm 2 m/s 763 mmHg 60%
    02:00 +10°C° 0 mm 2 m/s 763 mmHg 63%
    03:00 +10°C° 0 mm 2 m/s 763 mmHg 66%
    04:00 +9°C° 0 mm 2 m/s 763 mmHg 70%
    05:00 +10°C° 0 mm 2 m/s 763 mmHg 70%
    06:00 +10°C° 0 mm 2 m/s 764 mmHg 70%
    07:00 +10°C° 0 mm 2 m/s 764 mmHg 70%
    08:00 +13°C° 0 mm 3 m/s 764 mmHg 61%
    09:00 +17°C° 0 mm 3 m/s 764 mmHg 52%
    10:00 +20°C° 0 mm 3 m/s 764 mmHg 44%
    11:00 +21°C° 0 mm 3 m/s 763 mmHg 42%
    12:00 +22°C° 0 mm 3 m/s 763 mmHg 39%
    13:00 +24°C° 0 mm 3 m/s 762 mmHg 37%
    14:00 +22°C° 0 mm 3 m/s 762 mmHg 40%
    15:00 +22°C° 0 mm 4 m/s 762 mmHg 42%
    16:00 +21°C° 0 mm 4 m/s 762 mmHg 45%
    17:00 +20°C° 0 mm 4 m/s 762 mmHg 55%
    18:00 +18°C° 0 mm 3 m/s 763 mmHg 65%
    19:00 +16°C° 0 mm 3 m/s 764 mmHg 75%
    20:00 +14°C° 0 mm 3 m/s 764 mmHg 77%
    21:00 +14°C° 0 mm 3 m/s 764 mmHg 80%
    22:00 +14°C° 0 mm 2 m/s 764 mmHg 82%
    23:00 +14°C° 0 mm 2 m/s 764 mmHg 83%
    Voir plus